Volver al catálogo

STARLINK-4323

ActivoComunicacionesSSO
NORAD 53069·PAYLOAD·🇺🇸 United States

Lanzado Jul 11, 2022 desde Vandenberg Space Force Base

Loading…

Próximos Pases (próximas 24 horas)

TLE

ActualizadoSource: CelesTrak SupGP

Época: Sep 15, 2026, 01:15 UTC

1 53069C 22077AC  26258.05256944 -.00036523  00000+0 -11337-2 0  2584
2 53069  97.2854  72.9740 0001605  93.5466 157.4125 15.33458221    14

Sigue STARLINK-4323 en tiempo real con AllMySat

Download on the App Store